Regional Weather Roundup
Issued by NWS

Home | Current Version | Previous Version | Graphics & Text | Print | Product List | Glossary On
Versions: 1 2 3 4 5 6 7 8 9 10 11 12 13 14 15 16 17 18 19 20 21 22 23 24 25 26 27 28 29 30 31 32 33 34 35 36 37 38 39 40 41 42 43 44 45 46 47 48 49 50
000
ASUS45 KTFX 251219
RWRMT
MONTANA HOURLY WEATHER ROUNDUP
NATIONAL WEATHER SERVICE GREAT FALLS MT
519 AM MST THU DEC 25 2014

NOTE: "FAIR" INDICATES FEW OR NO CLOUDS BELOW 12000 FEET WITH NO
SIGNIFICANT WEATHER AND/OR OBSTRUCTIONS TO VISIBILITY.

* THESE STATIONS ARE NOT UNDER NWS QUALITY CONTROL. THEY DO NOT
   REPORT WEATHER SUCH AS PRECIPITATION OR FOG.

MTZ001>007-043-251300-
WEST OF THE DIVIDE
CITY           SKY/WX    TMP DP  RH WIND       PRES   REMARKS
KALISPELL      PTCLDY    27  23  85 N12       29.81R WCI  16
MISSOULA       CLOUDY    28  28 100 W7        29.79R WCI  21
BUTTE          CLOUDY    23  14  68 N10       29.63R WCI  13
MULLAN PASS    HAZE      25  19  78 VRB3      29.72R VSB 3
* ESSEX        N/A       21  19  92 N/A        N/A
* HAMILTON APT MOCLDY    28  28 100 CALM      29.74R
* LIBBY APT    CLEAR     25  25 100 CALM      29.87R VSB M1/4
* LINCOLN      N/A       24  20  85 E6G11      N/A   WCI  17
* LOOKOUT PASS N/A       25  25 100 N3         N/A
* POLSON       N/A       27  26  96 N/A        N/A
* RONAN APT    CLOUDY    30  28  92 N/A        N/A
* SEELEY LAKE  N/A       25  23  92 SE2        N/A
* THOMP F APT  PTCLDY    23  18  81 N15G29     N/A   WCI  10
* YAAK HILL    N/A       30  27  89 N/A        N/A
$$

MTZ008-052>055-251300-
SOUTHWEST MONTANA
CITY           SKY/WX    TMP DP  RH WIND       PRES   REMARKS
BOZEMAN        LGT SNOW  27  23  85 VRB5      29.64R WCI  21
DILLON         LGT SNOW  25  19  78 N17       29.57R WCI  12
* W YELLOWSTON CLOUDY    22  18  85 N4G11      N/A
* THREE FORKS  CLOUDY    28  28 100 N14G24     N/A   WCI  17
* TWIN BRIDGES CLOUDY    25  19  78 S29G35     N/A   WCI   8
* BOULDER HILL N/A       20  17  88 N20G26     N/A   WCI   4
* MONIDA PASS  N/A       21  18  88 NW19G25    N/A   WCI   6
* RAYNOLDS PAS N/A       20  18  92 NW26G32    N/A   WCI   2
* WHITEHALL    N/A       27  20  75 N13G25     N/A   WCI  16
* WISE RIVER   N/A       23  14  68 E6G17      N/A   WCI  16
$$

MTZ009>010-012-014-046-048-049-054-251300-
EAST SLOPES AND CENTRAL MONTANA
CITY           SKY/WX    TMP DP  RH WIND       PRES   REMARKS
GREAT FALLS    N/A       23  19  85 N5        29.80R WCI  16
HELENA         CLOUDY    27  21  78 NW12      29.74R WCI  16
MALMSTROM AFB  CLOUDY    23  21  92 N7        29.82R WCI  15
* CONRAD       MOCLDY    21  19  92 W7         N/A   WCI  12
* DEARBORN     N/A       27  23  85 N/A        N/A
* EAST GLACIER N/A       20  17  88 N/A        N/A
* MONARCH      N/A       19  16  88 NW14G19    N/A   WCI   5
* PENDROY      N/A       21  18  88 N12        N/A   WCI   9
* SWEET GRASS  N/A       20  20 100 N9         N/A   WCI  10
* WHITE SULPH  N/A       22  18  85 NW10G15    N/A   WCI  11
$$

MTZ011-013-016-021-035-040-045-047-050-051-251300-
NORTH CENTRAL MONTANA
CITY           SKY/WX    TMP DP  RH WIND       PRES   REMARKS
HAVRE          CLOUDY    25  21  85 N5        29.82R WCI  19
LEWISTOWN      CLOUDY    25  21  85 NW10      29.73R WCI  15
* N BAR RANCH  CLOUDY    23  21  92 N8        29.70R WCI  14
* CHINOOK      PTCLDY    27  19  72 NW5       29.82R WCI  21
* CHESTER      N/A       22  17  81 NE3        N/A
* DENTON       N/A       25  22  88 NW16       N/A   WCI  12
* JUDITH GAP   N/A       22  21  96 N26G34     N/A   WCI   5
* LOMA         N/A       23  20  88 W4         N/A
$$

MTZ017>020-022>027-061-062-251300-
NORTHEAST MONTANA
CITY           SKY/WX    TMP DP  RH WIND       PRES   REMARKS
GLASGOW        CLOUDY    25  19  78 N15       29.75R WCI  13
GLENDIVE       CLOUDY    25  21  85 NW9       29.71R WCI  16
JORDAN         CLOUDY    28  21  75 N15       29.71R WCI  16
SIDNEY         CLOUDY    27  21  78 NW10      29.71R WCI  18
WOLF POINT     CLOUDY    28  21  75 N12       29.73R WCI  18
* BEAVER HILL  N/A       23  21  92 NW13       N/A   WCI  11
* CIRCLE       N/A       27  22  81 NW2G8      N/A
* LINDSAY DVD  N/A       24  21  88 NW13       N/A   WCI  12
* NAVAJO       N/A       22  19  88 NW19G28    N/A   WCI   7
* PLENTYWOOD A MOCLDY    23  19  85 NW17      29.68R WCI   9
* POPLAR APT   MOCLDY    27  21  78 N/A       29.72R
* SACO         N/A       26  19  75 NW17G22    N/A   WCI  13
$$

MTZ028>042-056>058-251300-
SOUTHCENTRAL AND SOUTHEAST MONTANA
CITY           SKY/WX    TMP DP  RH WIND       PRES   REMARKS
BAKER          CLOUDY    25  21  85 N7        29.65R WCI  17
BILLINGS       LGT SNOW  27  27 100 NE10      29.70R VSB 2 1/2 WCI  18
LIVINGSTON     LGT SNOW  27  23  85 E18       29.64R VSB 3/4  WCI  14
MILES CITY     CLOUDY    28  23  81 N14       29.70R WCI  17
* BIG TIMBER A CLOUDY    25  25 100 NE6       29.68R VSB 1 1/4 WCI  18
* FORSYTH APT  CLOUDY    28  27  96 N5        29.71R WCI  22
* LAUREL APT   CLOUDY    28  19  69 N9         N/A   WCI  19
* ROUNDUP APT  CLOUDY    27  21  78 N6         N/A   WCI  20
* ALZADA       N/A       29  28  96 N4         N/A
* HYSHAM       N/A       26  24  92 N4G11      N/A
* REED POINT   N/A       28  27  96 NE5        N/A   WCI  22
* ROSCOE HILL  N/A       23  20  88 NE8G14     N/A   WCI  14
$$

REGIONAL REPORTS...DAKOTAS
CITY           SKY/WX    TMP DP  RH WIND       PRES   REMARKS
WILLISTON      CLOUDY    28  25  89 N12       29.68R WCI  18
DICKINSON      CLOUDY    25  19  78 NW9       29.61R WCI  16
BEACH          CLOUDY    25  25 100 NW13G20   29.67R WCI  13
CROSBY         CLOUDY    25  25 100 NW22G30   29.68R WCI  10
TIOGA          FOG       25  25 100 N20G26    29.67R WCI  11
WATFORD CITY   CLOUDY    25  23  92 NW9       29.64R WCI  16
BISMARCK       MOCLDY    25  19  78 NW7       29.63R WCI  17
GRAND FORKS    PTCLDY    25  21  85 W6        29.56R WCI  18
FARGO          CLOUDY    27  23  85 NW10      29.59R WCI  18
BUFFALO SD     CLOUDY    30  27  89 N13       29.52R WCI  20
RAPID CITY     LGT SNOW  30  28  92 N12       29.55R VSB 1 1/2 WCI  20
$$

REGIONAL REPORTS...WYOMING/IDAHO/WASHINGTON
CITY           SKY/WX    TMP DP  RH WIND       PRES   REMARKS
GILLETTE       LGT SNOW  28  27  96 N16       29.52R VSB 2    WCI  16
SHERIDAN       LGT SNOW  28  27  96 N12       29.64R VSB 1 1/2 WCI  18
CODY           CLOUDY    25  21  85 N24G32    29.55R VSB 2    WCI  10
YELLOWSTONE LA CLOUDY    19  16  88 VRB5      29.40R WCI  12
SALMON         CLOUDY    30  21  69 NE13      29.62R WCI  20
MULLAN PASS    HAZE      25  19  78 VRB3      29.72S VSB 3
SAND POINT     PTCLDY    30  30 100 N5        29.88R WCI  25
SPOKANE        CLEAR     25  21  85 W7        29.88R WCI  17
$$

REGIONAL REPORTS...ALBERTA
CITY           SKY/WX    TMP DP  RH WIND       PRES   REMARKS
CALGARY        FOG       21  19  92 NE3       29.80R
LETHBRIDGE     CLOUDY    27  23  85 NE6       29.83R WCI  20
MEDICINE HAT   CLOUDY    23  21  92 NW8       29.86R WCI  14
EDMONTON       LGT SNOW   9   7  91 W2        29.90R
WATERTON GATE  N/A       14  10  84 S2         N/A
CARDSTON       N/A       21  19  92 SW5        N/A   WCI  14
MILK RIVER     N/A       21  21 100 N5         N/A   WCI  14
$$

REGIONAL REPORTS...SASKATCHEWAN
CITY           SKY/WX    TMP DP  RH WIND       PRES   REMARKS
SWIFT CURRENT  CLOUDY    18  16  92 N17G23    29.75R WCI   3
REGINA         LGT SNOW  23  21  92 NW20      29.70R WCI   8
VAL MARIE      N/A       23  19  85 N16G25     N/A   WCI  10
ASSINIBOIA     N/A       23  19  85 N20        N/A   WCI   8

$$



USA.gov is the U.S. government's official web portal to all federal, state and local government web resources and services.